This is the latest recevied weather packets stored in our database for station/object VU2EXP-13. If no packets are shown the sender has not sent any weather packets the latest 1 day(s).
| Time | Temp. | Humidity | Pressure | Rain* | Wind** | Luminosity | Snow |
|---|---|---|---|---|---|---|---|
| 1778205374 | 30.56° C | 55% | 992.1 hPa | - | - | - | - |
| 1778204474 | 30.56° C | 55% | 991.9 hPa | - | - | - | - |
| 1778203573 | 30.56° C | 56% | 991.5 hPa | - | - | - | - |
| 1778202674 | 30.56° C | 56% | 991.3 hPa | - | - | - | - |
| 1778201773 | 30.56° C | 56% | 991 hPa | - | - | - | - |
| 1778200873 | 30.56° C | 56% | 990.9 hPa | - | - | - | - |
| 1778198173 | 31.11° C | 54% | 990.6 hPa | - | - | - | - |
| 1778195473 | 31.11° C | 53% | 990.3 hPa | - | - | - | - |
| 1778194574 | 31.11° C | 52% | 990.1 hPa | - | - | - | - |
| 1778193672 | 31.11° C | 50% | 990 hPa | - | - | - | - |
| 1778190972 | 31.67° C | 48% | 990.1 hPa | - | - | - | - |
| 1778186471 | 32.78° C | 47% | 990.5 hPa | - | - | - | - |
| 1778185571 | 32.78° C | 46% | 990.6 hPa | - | - | - | - |
| 1778184671 | 32.78° C | 46% | 990.8 hPa | - | - | - | - |
| 1778183771 | 32.78° C | 46% | 991 hPa | - | - | - | - |
| 1778181971 | 32.78° C | 43% | 991.2 hPa | - | - | - | - |
| 1778181071 | 32.78° C | 42% | 991.3 hPa | - | - | - | - |
| 1778179270 | 33.33° C | 41% | 991.5 hPa | - | - | - | - |
| 1778177470 | 33.33° C | 41% | 991.7 hPa | - | - | - | - |
| 1778176570 | 33.33° C | 41% | 991.8 hPa | - | - | - | - |
| 1778175670 | 33.89° C | 41% | 991.8 hPa | - | - | - | - |
| 1778173876 | 33.89° C | 44% | 991.6 hPa | - | - | - | - |
| 1778172070 | 34.44° C | 47% | 991.6 hPa | - | - | - | - |
| 1778171170 | 34.44° C | 47% | 991.4 hPa | - | - | - | - |
| 1778170269 | 34.44° C | 46% | 991.2 hPa | - | - | - | - |
* Rain since midnight (hover to see other rain measurements)
** Current wind speed in m/s (hover to see current wind gust speed)